KC3HIX Weather Reports


time (UTC)temp
C
wind
direction
speed
KPH
gust
KPH
rain 1hr
cm
rain 24hr
cm
rain mn
cm
humidity
%
barometer
mb
20260506103026 16 0 0.0 0.0 0.00 0.00 0.00 71 1006.5
20260506102526 16 0 0.0 0.0 0.00 0.00 0.00 72 1006.5
20260506102005 16 0 0.0 0.0 0.00 0.00 0.00 70 1006.8
20260506101505 16 0 0.0 0.0 0.00 0.00 0.00 69 1006.5
20260506101005 16 0 0.0 0.0 0.00 0.00 0.00 69 1006.5
20260506100505 16 0 0.0 0.0 0.00 0.00 0.00 70 1006.2
20260506100026 16 0 0.0 0.0 0.00 0.00 0.00 70 1006.2
20260506095505 17 0 0.0 0.0 0.00 0.00 0.00 69 1006.5
20260506095026 17 0 0.0 0.0 0.00 0.00 0.00 69 1006.5
20260506094527 17 0 0.0 0.0 0.00 0.00 0.00 67 1006.2
20260506094005 16 0 0.0 0.0 0.00 0.00 0.00 67 1006.2
20260506093504 16 0 0.0 0.0 0.00 0.00 0.00 67 1006.2
20260506093004 16 0 0.0 0.0 0.00 0.00 0.00 68 1006.2
20260506092525 16 0 0.0 0.0 0.00 0.00 0.00 69 1006.2
20260506092025 16 0 0.0 0.0 0.00 0.00 0.00 71 1006.2
20260506091504 16 0 0.0 0.0 0.00 0.00 0.00 70 1006.5
20260506091004 16 0 0.0 0.0 0.00 0.00 0.00 70 1006.5
20260506090504 16 0 0.0 0.0 0.00 0.00 0.00 69 1006.8
20260506090004 16 0 0.0 0.0 0.00 0.00 0.00 69 1006.8
20260506085504 16 0 0.0 0.0 0.00 0.00 0.00 69 1006.5
20260506085004 16 0 0.0 0.0 0.00 0.00 0.00 69 1006.5
20260506084504 16 0 0.0 0.0 0.00 0.00 0.00 71 1006.5
20260506084004 16 0 0.0 0.0 0.00 0.00 0.00 68 1006.5
20260506083504 16 0 0.0 0.0 0.00 0.00 0.00 68 1006.2
20260506083004 16 0 0.0 0.0 0.00 0.00 0.00 68 1006.5
20260506082504 16 0 0.0 0.0 0.00 0.00 0.00 68 1006.5
20260506082004 16 0 0.0 0.0 0.00 0.00 0.00 67 1006.5
20260506081504 16 0 0.0 0.0 0.00 0.00 0.00 67 1006.5
20260506081004 16 0 0.0 0.0 0.00 0.00 0.00 68 1006.5
20260506080504 16 0 0.0 0.0 0.00 0.00 0.00 68 1006.5
20260506073504 16 0 0.0 0.0 0.00 0.00 0.00 69 1006.8
20260506073004 16 0 0.0 0.0 0.00 0.00 0.00 67 1006.8
20260506072504 16 0 0.0 0.0 0.00 0.00 0.00 66 1006.8
20260506072004 17 0 0.0 0.0 0.00 0.00 0.00 65 1006.8
20260506071525 17 0 0.0 0.0 0.00 0.00 0.00 65 1006.8
20260506071004 17 0 0.0 0.0 0.00 0.00 0.00 64 1006.8
20260506070504 17 0 0.0 0.0 0.00 0.00 0.00 63 1006.8
20260506062004 17 0 0.0 0.0 0.00 0.00 0.00 61 1007.2
20260506061503 17 0 0.0 0.0 0.00 0.00 0.00 60 1007.2
20260506061004 16 0 0.0 0.0 0.00 0.00 0.00 63 1007.2
20260506060504 16 0 0.0 0.0 0.00 0.00 0.00 66 1007.5
20260506051025 15 0 0.0 0.0 0.00 0.00 0.00 73 1007.9
20260506050503 15 0 0.0 0.0 0.00 0.00 0.00 74 1007.9
20260506045003 15 0 0.0 0.0 0.00 0.00 0.00 77 1008.2
20260506044504 15 0 0.0 0.0 0.00 0.00 0.00 77 1007.9
20260506044003 15 0 0.0 0.0 0.00 0.00 0.00 78 1008.2
20260506043504 15 0 0.0 0.0 0.00 0.00 0.00 79 1008.2
20260506043003 15 0 0.0 0.0 0.00 0.00 0.00 79 1008.2
20260506042503 15 0 0.0 0.0 0.00 0.00 0.00 80 1008.2
20260506042003 15 0 0.0 0.0 0.00 0.00 0.00 77 1007.9
20260506041524 15 0 0.0 0.0 0.00 0.00 0.00 77 1007.9
20260506041024 15 0 0.0 0.0 0.00 0.00 0.00 78 1007.9
20260506040503 15 0 0.0 0.0 0.00 0.00 0.00 76 1007.5
20260506040003 15 0 0.0 0.0 0.00 0.00 0.00 76 1007.9
20260506035503 15 0 0.0 0.0 0.00 0.00 0.00 76 1007.9
20260506035004 15 0 0.0 0.0 0.00 0.00 0.00 78 1008.2
20260506034003 15 0 0.0 0.0 0.00 0.00 0.00 77 1007.9
20260506033503 15 0 0.0 0.0 0.00 0.00 0.00 76 1007.9
20260506033004 15 0 0.0 0.0 0.00 0.00 0.00 76 1007.9
20260506032503 15 0 0.0 0.0 0.00 0.00 0.00 77 1007.9
20260506032003 15 0 0.0 0.0 0.00 0.00 0.00 78 1008.2
20260506031524 15 0 0.0 0.0 0.00 0.00 0.00 77 1008.2
20260506031008 15 0 0.0 0.0 0.00 0.00 0.00 75 1007.9
20260506030508 15 0 0.0 0.0 0.00 0.00 0.00 77 1008.2
20260506030008 15 0 0.0 0.0 0.00 0.00 0.00 77 1007.9
20260506025529 15 0 0.0 0.0 0.00 0.00 0.00 76 1007.9
20260506025008 15 0 0.0 0.0 0.00 0.00 0.00 77 1007.9
20260506024508 15 0 0.0 0.0 0.00 0.00 0.00 75 1008.2
20260506024008 15 0 0.0 0.0 0.00 0.00 0.00 74 1008.2
20260506023508 15 0 0.0 0.0 0.00 0.00 0.00 74 1008.2
20260506023008 15 0 0.0 0.0 0.00 0.00 0.00 74 1008.2
20260506022508 15 0 0.0 0.0 0.00 0.00 0.00 74 1008.2
20260506022008 16 0 0.0 0.0 0.00 0.00 0.00 71 1008.2
20260506021508 16 0 0.0 0.0 0.00 0.00 0.00 74 1008.2
20260506021008 16 0 0.0 0.0 0.00 0.00 0.00 72 1008.2
20260506020508 16 0 0.0 0.0 0.00 0.00 0.00 72 1008.2
20260506020008 16 0 0.0 0.0 0.00 0.00 0.00 70 1008.2
20260506015508 16 0 0.0 0.0 0.00 0.00 0.00 69 1008.2
20260506015008 16 0 0.0 0.0 0.00 0.00 0.00 72 1008.2
20260506014508 17 0 0.0 0.0 0.00 0.00 0.00 68 1008.2
20260506014008 17 0 0.0 0.0 0.00 0.00 0.00 69 1008.2
20260506013508 17 0 0.0 0.0 0.00 0.00 0.00 70 1007.9
20260506013008 17 0 0.0 0.0 0.00 0.00 0.00 69 1007.9
20260506012508 17 0 0.0 0.0 0.00 0.00 0.00 68 1007.9
20260506012008 18 0 0.0 0.0 0.00 0.00 0.00 68 1007.9
20260506011508 18 0 0.0 0.0 0.00 0.00 0.00 69 1007.9
20260506011029 18 0 0.0 0.0 0.00 0.00 0.00 66 1007.9
20260506010508 18 0 0.0 0.0 0.00 0.00 0.00 66 1007.9
20260506010008 18 0 0.0 0.0 0.00 0.00 0.00 65 1007.9
20260506005508 19 0 0.0 0.0 0.00 0.00 0.00 64 1007.5
20260506005008 19 0 0.0 0.0 0.00 0.00 0.00 63 1007.5
20260506004508 19 0 0.0 0.0 0.00 0.00 0.00 61 1007.5
20260506004008 20 0 0.0 0.0 0.00 0.00 0.00 59 1007.5
20260506003508 20 0 0.0 0.0 0.00 0.00 0.00 60 1007.5
20260506003008 20 0 0.0 0.0 0.00 0.00 0.00 61 1007.5
20260506002529 20 0 0.0 0.0 0.00 0.00 0.00 59 1007.2
20260506002008 20 0 0.0 0.0 0.00 0.00 0.00 58 1007.2
20260506001508 20 0 0.0 0.0 0.00 0.00 0.00 59 1007.2
20260506001029 21 0 0.0 0.0 0.00 0.00 0.00 56 1007.2
20260506000508 21 0 0.0 0.0 0.00 0.00 0.00 56 1007.2
20260506000008 21 0 0.0 0.0 0.00 0.00 0.00 55 1007.2
20260505235507 22 0 0.0 0.0 0.00 0.00 0.00 52 1007.2
20260505235008 22 0 0.0 0.0 0.00 0.00 0.00 51 1007.2
20260505234507 22 0 0.0 0.0 0.00 0.00 0.00 49 1006.8
20260505234007 22 0 0.0 0.0 0.00 0.00 0.00 48 1007.2
20260505233507 23 0 0.0 0.0 0.00 0.00 0.00 48 1006.8
20260505233007 23 0 0.0 0.0 0.00 0.00 0.00 45 1007.2
20260505232509 23 0 0.0 0.0 0.00 0.00 0.00 44 1006.8
20260505232008 23 0 0.0 0.0 0.00 0.00 0.00 44 1006.8
20260505231508 24 0 0.0 0.0 0.00 0.00 0.00 43 1006.8
20260505231007 24 0 0.0 0.0 0.00 0.00 0.00 43 1006.8
20260505230507 24 0 0.0 0.0 0.00 0.00 0.00 42 1006.8
20260505230007 24 0 0.0 0.0 0.00 0.00 0.00 41 1006.8
20260505225507 25 0 0.0 0.0 0.00 0.00 0.00 42 1006.5
20260505225007 25 0 0.0 0.0 0.00 0.00 0.00 40 1006.5
20260505224507 25 0 0.0 0.0 0.00 0.00 0.00 39 1006.5
20260505224007 25 0 0.0 0.0 0.00 0.00 0.00 39 1006.2
20260505223507 25 0 0.0 0.0 0.00 0.00 0.00 39 1006.2
20260505223007 25 0 0.0 0.0 0.00 0.00 0.00 39 1006.2
20260505222507 25 0 0.0 0.0 0.00 0.00 0.00 38 1006.2
20260505222007 25 0 0.0 0.0 0.00 0.00 0.00 39 1005.8
20260505221507 25 0 0.0 0.0 0.00 0.00 0.00 37 1006.2
20260505221007 25 0 0.0 0.0 0.00 0.00 0.00 36 1006.2
20260505220507 25 0 0.0 0.0 0.00 0.00 0.00 37 1006.2
20260505220007 25 0 0.0 0.0 0.00 0.00 0.00 37 1006.2
20260505215507 25 0 0.0 0.0 0.00 0.00 0.00 37 1006.2
20260505215028 25 0 0.0 0.0 0.00 0.00 0.00 35 1005.8
20260505214507 26 0 0.0 0.0 0.00 0.00 0.00 36 1006.2
20260505214028 26 0 0.0 0.0 0.00 0.00 0.00 36 1006.2
20260505213507 26 0 0.0 0.0 0.00 0.00 0.00 34 1005.8
20260505213007 26 0 0.0 0.0 0.00 0.00 0.00 34 1005.8
20260505212507 26 0 0.0 0.0 0.00 0.00 0.00 34 1005.5
20260505212007 26 0 0.0 0.0 0.00 0.00 0.00 34 1005.5
20260505211507 26 0 0.0 0.0 0.00 0.00 0.00 34 1005.8
20260505211007 26 0 0.0 0.0 0.00 0.00 0.00 33 1005.5
20260505210507 26 0 0.0 0.0 0.00 0.00 0.00 32 1005.5
20260505210007 27 0 0.0 0.0 0.00 0.00 0.00 33 1005.8
20260505205507 27 0 0.0 0.0 0.00 0.00 0.00 33 1005.8
20260505205007 27 0 0.0 0.0 0.00 0.00 0.00 34 1005.5
20260505204528 27 0 0.0 0.0 0.00 0.00 0.00 34 1005.8
20260505204028 27 0 0.0 0.0 0.00 0.00 0.00 34 1005.5
20260505203507 27 0 0.0 0.0 0.00 0.00 0.00 34 1005.5
20260505203007 27 0 0.0 0.0 0.00 0.00 0.00 35 1005.8
20260505202507 27 0 0.0 0.0 0.00 0.00 0.00 34 1005.8
20260505202007 27 0 0.0 0.0 0.00 0.00 0.00 34 1005.8
20260505201507 27 0 0.0 0.0 0.00 0.00 0.00 32 1005.8
20260505201007 27 0 0.0 0.0 0.00 0.00 0.00 34 1005.8
20260505200507 27 0 0.0 0.0 0.00 0.00 0.00 35 1005.8
20260505200007 27 0 0.0 0.0 0.00 0.00 0.00 34 1005.8
20260505195507 27 0 0.0 0.0 0.00 0.00 0.00 34 1005.8
20260505195028 28 0 0.0 0.0 0.00 0.00 0.00 33 1005.8
20260505194507 28 0 0.0 0.0 0.00 0.00 0.00 32 1006.2
20260505194028 28 0 0.0 0.0 0.00 0.00 0.00 34 1006.2
20260505193507 28 0 0.0 0.0 0.00 0.00 0.00 37 1006.2
20260505193007 28 0 0.0 0.0 0.00 0.00 0.00 36 1006.2
20260505192528 28 0 0.0 0.0 0.00 0.00 0.00 38 1006.2
20260505192006 28 0 0.0 0.0 0.00 0.00 0.00 36 1006.2
20260505191507 28 0 0.0 0.0 0.00 0.00 0.00 38 1006.2
20260505191006 28 0 0.0 0.0 0.00 0.00 0.00 36 1006.2
20260505190506 28 0 0.0 0.0 0.00 0.00 0.00 37 1006.2
20260505190027 28 0 0.0 0.0 0.00 0.00 0.00 38 1006.2
20260505185506 27 0 0.0 0.0 0.00 0.00 0.00 39 1006.2
20260505185027 27 0 0.0 0.0 0.00 0.00 0.00 37 1006.2
20260505184506 27 0 0.0 0.0 0.00 0.00 0.00 39 1006.5
20260505184006 27 0 0.0 0.0 0.00 0.00 0.00 39 1006.8
20260505183506 27 0 0.0 0.0 0.00 0.00 0.00 39 1006.5
20260505183006 27 0 0.0 0.0 0.00 0.00 0.00 40 1006.8
20260505182506 27 0 0.0 0.0 0.00 0.00 0.00 42 1006.8
20260505182027 27 0 0.0 0.0 0.00 0.00 0.00 44 1006.8
20260505181506 27 0 0.0 0.0 0.00 0.00 0.00 41 1007.2
20260505181006 27 0 0.0 0.0 0.00 0.00 0.00 40 1007.2
20260505180506 27 0 0.0 0.0 0.00 0.00 0.00 41 1007.2
20260505180006 27 0 0.0 0.0 0.00 0.00 0.00 43 1007.5
20260505175527 27 0 0.0 0.0 0.00 0.00 0.00 40 1007.2
20260505175006 27 0 0.0 0.0 0.00 0.00 0.00 40 1007.5
20260505174506 27 0 0.0 0.0 0.00 0.00 0.00 39 1007.5
20260505174027 27 0 0.0 0.0 0.00 0.00 0.00 41 1007.5
20260505173506 27 0 0.0 0.0 0.00 0.00 0.00 39 1007.5
20260505173006 27 0 0.0 0.0 0.00 0.00 0.00 41 1007.5
20260505172506 27 0 0.0 0.0 0.00 0.00 0.00 41 1007.5
20260505172006 27 0 0.0 0.0 0.00 0.00 0.00 39 1007.2
20260505171506 27 0 0.0 0.0 0.00 0.00 0.00 40 1007.5
20260505171006 27 0 0.0 0.0 0.00 0.00 0.00 41 1007.5
20260505170506 27 0 0.0 0.0 0.00 0.00 0.00 46 1007.5
20260505170006 27 0 0.0 0.0 0.00 0.00 0.00 45 1007.5
20260505165506 27 0 0.0 0.0 0.00 0.00 0.00 41 1007.5
20260505165027 28 0 0.0 0.0 0.00 0.00 0.00 41 1007.5
20260505164506 28 0 0.0 0.0 0.00 0.00 0.00 41 1007.9
20260505164006 28 0 0.0 0.0 0.00 0.00 0.00 40 1007.9
20260505163506 28 0 0.0 0.0 0.00 0.00 0.00 41 1008.2
20260505163007 27 0 0.0 0.0 0.00 0.00 0.00 43 1007.9
20260505162506 27 0 0.0 0.0 0.00 0.00 0.00 42 1008.2
20260505162006 27 0 0.0 0.0 0.00 0.00 0.00 41 1008.6
20260505161506 27 0 0.0 0.0 0.00 0.00 0.00 43 1008.6
20260505161006 27 0 0.0 0.0 0.00 0.00 0.00 43 1008.2
20260505160506 27 0 0.0 0.0 0.00 0.00 0.00 43 1008.6
20260505153006 25 0 0.0 0.0 0.00 0.00 0.00 45 1008.6
20260505152506 25 0 0.0 0.0 0.00 0.00 0.00 44 1008.9
20260505152006 25 0 0.0 0.0 0.00 0.00 0.00 48 1008.9
20260505151506 25 0 0.0 0.0 0.00 0.00 0.00 48 1008.9
20260505151027 25 0 0.0 0.0 0.00 0.00 0.00 46 1008.9
20260505150505 25 0 0.0 0.0 0.00 0.00 0.00 49 1008.9
20260505140505 26 0 0.0 0.0 0.00 0.00 0.00 46 1008.9
20260505125005 23 0 0.0 0.0 0.00 0.00 0.00 51 1009.6
20260505124526 23 0 0.0 0.0 0.00 0.00 0.00 50 1009.6
20260505124026 23 0 0.0 0.0 0.00 0.00 0.00 51 1009.6
20260505123505 23 0 0.0 0.0 0.00 0.00 0.00 50 1009.6
20260505123005 23 0 0.0 0.0 0.00 0.00 0.00 51 1009.6
20260505122505 22 0 0.0 0.0 0.00 0.00 0.00 54 1009.9
20260505122005 22 0 0.0 0.0 0.00 0.00 0.00 55 1009.9
20260505121505 21 0 0.0 0.0 0.00 0.00 0.00 59 1009.9
20260505121005 21 0 0.0 0.0 0.00 0.00 0.00 59 1009.9
20260505120505 20 0 0.0 0.0 0.00 0.00 0.00 60 1009.9
20260505120005 19 0 0.0 0.0 0.00 0.00 0.00 63 1009.3
20260505115505 18 0 0.0 0.0 0.00 0.00 0.00 64 1009.3
20260505115026 18 0 0.0 0.0 0.00 0.00 0.00 66 1009.3
20260505114505 17 0 0.0 0.0 0.00 0.00 0.00 67 1009.3
20260505114026 17 0 0.0 0.0 0.00 0.00 0.00 69 1009.6
20260505113505 16 0 0.0 0.0 0.00 0.00 0.00 71 1009.6
20260505113005 16 0 0.0 0.0 0.00 0.00 0.00 71 1009.6
20260505112505 16 0 0.0 0.0 0.00 0.00 0.00 72 1009.6
20260505112005 15 0 0.0 0.0 0.00 0.00 0.00 72 1009.6
20260505111505 15 0 0.0 0.0 0.00 0.00 0.00 73 1009.3
20260505111005 15 0 0.0 0.0 0.00 0.00 0.00 75 1008.9
20260505110505 15 0 0.0 0.0 0.00 0.00 0.00 76 1009.3